STARLINK-1693

Last updated on Fri Nov 06 2020 00:02:03 GMT+0000 (Coordinated Universal Time)

1 46543U 20070M 20310.83334491 -.01087050 00000-0 -19460-1 0 9996 2 46543 53.0003 293.1540 0001154 64.2829 303.3582 15.52197091 5583

Satellite not in orbit

STARLINK-1693